When you browse on this site, cookies collect data to enhance your experience and personalize the content and advertising you see.
Visit our Privacy Policy to learn more. By continuing to use the site, you agree to this use of cookies and data.
  • En España
  • Lista de países
  • Para 7 días
  • Temperatura del agua
  • Mapa Satelital
  • El tiempo en el mapa
  • Informadores
  • user-avatar
    Iniciar sesión

    Tiempo cada hora Lashkar Gah

    Hoy, 21 Noviembre, Miércoles

    Tiempo Temperatura Precipitaciones Viento Presión Humedad
    00:00 +18°C° 0 mm 4 mps 696 mmHg 23%
    01:00 +17°C° 0 mm 4 mps 695 mmHg 23%
    02:00 +16°C° 0 mm 5 mps 695 mmHg 22%
    03:00 +16°C° 0 mm 5 mps 695 mmHg 22%
    04:00 +16°C° 0 mm 5 mps 695 mmHg 22%
    05:00 +17°C° 0 mm 5 mps 695 mmHg 21%
    06:00 +17°C° 0 mm 5 mps 695 mmHg 21%
    07:00 +17°C° 0 mm 5 mps 695 mmHg 21%
    08:00 +20°C° 0.1 mm 5 mps 696 mmHg 21%
    09:00 +21°C° 0.1 mm 5 mps 696 mmHg 21%
    10:00 +23°C° 0 mm 4 mps 696 mmHg 19%
    11:00 +23°C° 0.1 mm 4 mps 696 mmHg 21%
    12:00 +23°C° 0.1 mm 5 mps 696 mmHg 24%
    13:00 +23°C° 0.1 mm 5 mps 695 mmHg 27%
    14:00 +23°C° 0.2 mm 4 mps 695 mmHg 30%
    15:00 +22°C° 0.2 mm 4 mps 695 mmHg 33%
    16:00 +21°C° 0.2 mm 3 mps 694 mmHg 36%
    17:00 +20°C° 0.9 mm 3 mps 694 mmHg 42%
    18:00 +18°C° 0.9 mm 4 mps 695 mmHg 48%
    19:00 +17°C° 0.9 mm 4 mps 695 mmHg 54%
    20:00 +17°C° 0.5 mm 4 mps 695 mmHg 56%
    21:00 +17°C° 0.5 mm 4 mps 695 mmHg 58%
    22:00 +16°C° 0.5 mm 3 mps 695 mmHg 61%
    23:00 +16°C° 0.4 mm 3 mps 695 mmHg 63%

    Mañana, 22 Noviembre, Jueves

    Tiempo Temperatura Precipitaciones Viento Presión Humedad
    00:00 +16°C° 0.4 mm 3 mps 695 mmHg 66%
    01:00 +15°C° 0.4 mm 2 mps 695 mmHg 68%
    02:00 +15°C° 0.1 mm 2 mps 695 mmHg 70%
    03:00 +15°C° 0.1 mm 2 mps 695 mmHg 72%
    04:00 +15°C° 0.1 mm 2 mps 695 mmHg 73%
    05:00 +15°C° 0 mm 2 mps 695 mmHg 72%
    06:00 +15°C° 0 mm 2 mps 696 mmHg 71%
    07:00 +15°C° 0 mm 2 mps 696 mmHg 70%
    08:00 +16°C° 0 mm 2 mps 697 mmHg 64%
    09:00 +18°C° 0 mm 2 mps 698 mmHg 57%
    10:00 +19°C° 0 mm 2 mps 698 mmHg 51%
    11:00 +20°C° 0 mm 2 mps 698 mmHg 45%
    12:00 +21°C° 0 mm 2 mps 698 mmHg 39%
    13:00 +23°C° 0 mm 2 mps 697 mmHg 33%
    14:00 +23°C° 0 mm 2 mps 697 mmHg 31%
    15:00 +23°C° 0 mm 2 mps 697 mmHg 29%
    16:00 +23°C° 0 mm 1 mps 697 mmHg 27%
    17:00 +22°C° 0 mm 1 mps 697 mmHg 29%
    18:00 +21°C° 0 mm 1 mps 697 mmHg 31%
    19:00 +20°C° 0 mm 1 mps 698 mmHg 34%
    20:00 +19°C° 0 mm 1 mps 698 mmHg 34%
    21:00 +19°C° 0 mm 1 mps 698 mmHg 34%
    22:00 +18°C° 0 mm 2 mps 698 mmHg 34%
    23:00 +17°C° 0 mm 2 mps 698 mmHg 36%

    Pasado mañana, 23 Noviembre, Viernes

    Tiempo Temperatura Precipitaciones Viento Presión Humedad
    00:00 +17°C° 0 mm 3 mps 698 mmHg 38%
    01:00 +17°C° 0 mm 3 mps 698 mmHg 39%
    02:00 +17°C° 0 mm 4 mps 698 mmHg 42%
    03:00 +15°C° 0 mm 4 mps 698 mmHg 44%
    04:00 +15°C° 0 mm 4 mps 698 mmHg 47%
    05:00 +15°C° 0 mm 4 mps 698 mmHg 47%
    06:00 +15°C° 0 mm 4 mps 699 mmHg 47%
    07:00 +15°C° 0 mm 4 mps 699 mmHg 47%
    08:00 +17°C° 0 mm 5 mps 700 mmHg 42%
    09:00 +20°C° 0 mm 5 mps 700 mmHg 36%
    10:00 +21°C° 0 mm 6 mps 701 mmHg 31%
    11:00 +22°C° 0 mm 5 mps 700 mmHg 28%
    12:00 +23°C° 0 mm 5 mps 700 mmHg 26%
    13:00 +25°C° 0 mm 5 mps 699 mmHg 23%
    14:00 +25°C° 0 mm 4 mps 699 mmHg 23%
    15:00 +25°C° 0 mm 4 mps 699 mmHg 23%
    16:00 +25°C° 0 mm 3 mps 698 mmHg 23%
    17:00 +23°C° 0 mm 4 mps 699 mmHg 24%
    18:00 +22°C° 0 mm 4 mps 699 mmHg 25%
    19:00 +21°C° 0 mm 5 mps 699 mmHg 27%
    20:00 +20°C° 0 mm 5 mps 699 mmHg 27%
    21:00 +20°C° 0 mm 5 mps 699 mmHg 27%
    22:00 +19°C° 0 mm 5 mps 699 mmHg 27%
    23:00 +19°C° 0 mm 5 mps 699 mmHg 28%

    24 Noviembre, Sábado

    Tiempo Temperatura Precipitaciones Viento Presión Humedad
    00:00 +19°C° 0 mm 5 mps 698 mmHg 28%
    01:00 +19°C° 0 mm 4 mps 698 mmHg 29%
    02:00 +18°C° 0 mm 4 mps 698 mmHg 29%
    03:00 +18°C° 0 mm 4 mps 698 mmHg 30%
    04:00 +18°C° 0 mm 4 mps 698 mmHg 30%
    05:00 +18°C° 0 mm 4 mps 698 mmHg 31%
    06:00 +18°C° 0 mm 4 mps 699 mmHg 31%
    07:00 +17°C° 0 mm 4 mps 699 mmHg 31%
    08:00 +19°C° 0 mm 4 mps 699 mmHg 29%
    09:00 +21°C° 0 mm 4 mps 700 mmHg 26%
    10:00 +23°C° 0 mm 4 mps 700 mmHg 23%
    11:00 +25°C° 0 mm 4 mps 700 mmHg 23%
    12:00 +26°C° 0 mm 3 mps 699 mmHg 22%
    13:00 +27°C° 0 mm 3 mps 698 mmHg 22%
    14:00 +26°C° 0 mm 2 mps 698 mmHg 23%
    15:00 +26°C° 0 mm 2 mps 698 mmHg 23%
    16:00 +26°C° 0 mm 1 mps 698 mmHg 24%
    17:00 +25°C° 0 mm 2 mps 698 mmHg 25%
    18:00 +24°C° 0 mm 2 mps 698 mmHg 26%
    19:00 +23°C° 0 mm 2 mps 698 mmHg 28%
    20:00 +21°C° 0 mm 2 mps 698 mmHg 28%
    21:00 +21°C° 0 mm 3 mps 698 mmHg 29%
    22:00 +20°C° 0 mm 3 mps 698 mmHg 30%
    23:00 +20°C° 0 mm 2 mps 698 mmHg 31%

    25 Noviembre, Domingo

    Tiempo Temperatura Precipitaciones Viento Presión Humedad
    00:00 +19°C° 0 mm 2 mps 698 mmHg 31%
    01:00 +19°C° 0 mm 2 mps 697 mmHg 32%
    02:00 +18°C° 0 mm 2 mps 697 mmHg 33%
    03:00 +18°C° 0 mm 2 mps 697 mmHg 34%
    04:00 +17°C° 0 mm 2 mps 697 mmHg 35%
    05:00 +17°C° 0 mm 2 mps 697 mmHg 35%
    06:00 +17°C° 0 mm 2 mps 698 mmHg 36%
    07:00 +18°C° 0 mm 1 mps 698 mmHg 36%
    08:00 +20°C° 0 mm 1 mps 698 mmHg 32%
    09:00 +22°C° 0 mm 1 mps 699 mmHg 28%
    10:00 +24°C° 0 mm 1 mps 699 mmHg 25%
    11:00 +24°C° 0 mm 1 mps 699 mmHg 24%
    12:00 +25°C° 0 mm 1 mps 698 mmHg 23%
    13:00 +25°C° 0 mm 1 mps 698 mmHg 22%
    14:00 +25°C° 0 mm 1 mps 697 mmHg 22%
    15:00 +25°C° 0 mm 1 mps 697 mmHg 23%
    16:00 +25°C° 0 mm 1 mps 697 mmHg 23%
    17:00 +24°C° 0 mm 1 mps 697 mmHg 26%
    18:00 +23°C° 0 mm 2 mps 697 mmHg 28%
    19:00 +21°C° 0 mm 2 mps 697 mmHg 30%
    20:00 +20°C° 0 mm 2 mps 697 mmHg 32%
    21:00 +20°C° 0 mm 1 mps 697 mmHg 34%
    22:00 +20°C° 0 mm 1 mps 697 mmHg 35%
    23:00 +19°C° 0 mm 1 mps 696 mmHg 36%

    26 Noviembre, Lunes

    Tiempo Temperatura Precipitaciones Viento Presión Humedad
    00:00 +19°C° 0 mm 1 mps 696 mmHg 37%
    01:00 +18°C° 0 mm 1 mps 695 mmHg 38%
    02:00 +18°C° 0 mm 1 mps 695 mmHg 38%
    03:00 +17°C° 0 mm 2 mps 695 mmHg 38%
    04:00 +17°C° 0 mm 2 mps 695 mmHg 37%
    05:00 +17°C° 0 mm 3 mps 695 mmHg 37%
    06:00 +17°C° 0 mm 3 mps 696 mmHg 36%
    07:00 +17°C° 0 mm 3 mps 696 mmHg 36%
    08:00 +19°C° 0 mm 4 mps 696 mmHg 31%
    09:00 +21°C° 0 mm 4 mps 696 mmHg 27%
    10:00 +23°C° 0 mm 4 mps 697 mmHg 23%
    11:00 +25°C° 0 mm 4 mps 696 mmHg 22%
    12:00 +26°C° 0 mm 4 mps 696 mmHg 20%
    13:00 +27°C° 0 mm 4 mps 695 mmHg 18%
    14:00 +27°C° 0 mm 3 mps 695 mmHg 19%
    15:00 +26°C° 0 mm 2 mps 694 mmHg 19%
    16:00 +26°C° 0 mm 2 mps 694 mmHg 20%
    17:00 +25°C° 0 mm 2 mps 694 mmHg 22%
    18:00 +24°C° 0 mm 2 mps 694 mmHg 23%
    19:00 +23°C° 0 mm 2 mps 694 mmHg 25%
    20:00 +22°C° 0 mm 3 mps 694 mmHg 26%
    21:00 +22°C° 0 mm 3 mps 695 mmHg 26%
    22:00 +21°C° 0 mm 3 mps 695 mmHg 27%
    23:00 +21°C° 0 mm 3 mps 694 mmHg 27%
    Mostrar más